Zurück zum Katalog

SL-8 R/B

AktivLEO
NORAD 7273·ROCKET BODY·🇷🇺 Russia

Gestartet Apr 23, 1974 von Plesetsk Cosmodrome

Loading…

Nächste Überflüge (nächste 24 Stunden)

TLE

AktuellSource: Space-Track

Epoche: Sep 14, 2026, 08:14 UTC

1 07273U 74024J   26257.34329287  .00000025  00000-0  33905-3 0  9996
2 07273  74.0274  26.0954 0076020 237.6726 149.5396 12.30502465353690

Verfolge SL-8 R/B in Echtzeit mit AllMySat

Download on the App Store